Weather Roundup
Issued by NWS Springfield, MO

Home | Current Version | Previous Version | Text Only | Print | Product List | Glossary On
Versions: 1 2 3 4 5 6 7 8 9 10 11 12 13 14 15 16 17 18 19 20 21 22 23 24 25 26 27 28 29 30 31 32 33 34 35 36 37 38 39 40 41 42 43 44 45 46 47 48 49 50
000
NZUS99 KSGF 191059
HRRSGF

HOURLY WEATHER
NATIONAL WEATHER SERVICE SPRINGFIELD MO
500 AM CST FRI DEC 19 2014

......SGF CWA......

CITY           SKY/WX    TMP DP  RH WIND       PRES   REMARKS
SPRINGFIELD    CLOUDY    37  36  96 NE8       30.16F FOG     WCI  31
JOPLIN         FOG       36  35  96 N7        30.19F VSB 1/2 WCI  30
WEST PLAINS    CLOUDY    35  33  92 NE7       30.20R FOG     WCI  29
ROLLA          FOG       32  31  96 NE5       30.21F VSB 1/4 WCI  27
OSAGE BEACH    CLOUDY    34  32  93 NE5       30.22F WCI  30

......SURROUNDING SGF CWA......

CITY           SKY/WX    TMP DP  RH WIND       PRES   REMARKS
CHANUTE        CLOUDY    33  32  96 N6        30.22S FOG     WCI  28
PARSONS        CLOUDY    35  33  92 N7        30.21F WCI  29
COFFEYVILLE    CLOUDY    35  33  92 N6        30.21F FOG     WCI  30
EMPORIA        CLOUDY    29  28  96 N3        30.22F FOG
SILOAM SPRINGS CLOUDY    39  34  81 CALM      30.21R VSB 3/4
HARRISON AR    CLOUDY    36  36 100 SE6       30.19R FOG     WCI  31
NEAR YELLVILLE CLOUDY    37  34  87 SE3       30.22R

......KANSAS AND MISSOURI......

CITY           SKY/WX    TMP DP  RH WIND       PRES   REMARKS
KANSAS CTY INT CLOUDY    30  29  96 NW3       30.24S FOG
DOWNTOWN KC    CLOUDY    33  30  88 N5        30.25S FOG     WCI  29
COLUMBIA       CLOUDY    32  30  92 E5        30.25S FOG     WCI  27
SEDALIA        CLOUDY    33  32  96 NE3       30.25S FOG
ST JOSEPH      CLOUDY    30  27  88 S3        30.26F
ST LOUIS       CLOUDY    34  26  72 NE3       30.28F
SPIRIT OF STL  CLOUDY    33  28  81 CALM      30.28F
KIRKSVILLE     CLOUDY    28  27  93 CALM      30.27S
WICHITA        CLOUDY    31  28  89 NE5       30.20F FOG     WCI  26
TOPEKA         CLOUDY    31  29  92 VRB3      30.25F
OLATHE         CLOUDY    31  29  92 CALM      30.23S

......TENNESSEE......

CITY           SKY/WX    TMP DP  RH WIND       PRES   REMARKS
MEMPHIS        CLOUDY    43  36  76 NE7       30.21S
NASHVILLE      CLOUDY    35  29  78 NE3       30.25R

......ARKANSAS.......

CITY           SKY/WX    TMP DP  RH WIND       PRES   REMARKS
FAYETTEVILLE   CLOUDY    40  39  97 CALM      30.19R FOG
FT SMITH       CLOUDY    41  38  89 E5        30.21S
LITTLE ROCK    CLOUDY    42  38  85 NE6       30.23R

......OKLAHOMA.......

CITY           SKY/WX    TMP DP  RH WIND       PRES   REMARKS
TULSA          CLOUDY    37  36  96 N9        30.22S WCI  30
PONCA CITY     CLOUDY    34  31  88 N9        30.19F FOG     WCI  27
MCALESTER      CLOUDY    42  40  92 NE3       30.19F
OKLAHOMA CITY  DRZL/FOG  39  37  92 N7        30.17S VSB 3/4 WCI  34

......IOWA............

CITY           SKY/WX    TMP DP  RH WIND       PRES   REMARKS
DES MOINES     CLOUDY    28  24  85 S3        30.26S
QUAD CITIES    CLEAR     16  13  88 CALM      30.29F

......ILLINOIS........

CITY           SKY/WX    TMP DP  RH WIND       PRES   REMARKS
QUINCY         CLOUDY    28  24  85 E3        30.28S
CHICAGO        FLURRIES  28  23  81 N6        30.26S WCI  22



USA.gov is the U.S. government's official web portal to all federal, state and local government web resources and services.